Location: Fort Worth, Tx
(32.7431°N, 97.3695°W)
Time: 08:56:31
(UTC-04:00)

A-11 Canister half - Pass Details

Date: 20 August 2024
Orbit: 1524 x 1684 km, 47.3° (Epoch: 13 September)

Event Time Altitude Azimuth Distance (km) Brightness Sun altitude
Rises 04:30:45 0° 306° (NW) 4,939 11.7 -36.9°
Reaches altitude 10° 04:34:04 10° 310° (NW) 3,950 11.1 -36.5°
Maximum altitude 04:44:03 57° 28° (NNE) 1,918 9.6 -35.2°
Drops below altitude 10° 04:53:48 10° 106° (ESE) 3,874 11.4 -33.8°
Sets 04:56:59 0° 110° (ESE) 4,839 11.9 -33.4°
